NJE812 KBNA-KROA

Flight info

Callsign NJE812
Flight time 0h 47m
Altitude 37000
Route BNA CHADM PSK
Aircraft GL6T/M-SGDFIBRWXY/A009FD

Departure

Time 2026-05-07 01:55
Airport Nashville International Airport (KBNA)

Arrival

Time 2026-05-07 02:43
Airport Roanoke–Blacksburg Regional Airport (KROA)
Time Latitude Longitude Altitude Speed Heading
2026-05-07 01:21 36.12071 -86.67178 586 ft 0 kts 174°
2026-05-07 01:47 36.12070 -86.67177 586 ft 0 kts 174°
2026-05-07 01:47 36.12083 -86.67204 586 ft 8 kts 38°
2026-05-07 01:47 36.12086 -86.67199 586 ft 0 kts 53°
2026-05-07 01:47 36.12116 -86.67201 586 ft 10 kts 322°
2026-05-07 01:48 36.12158 -86.67253 587 ft 0 kts 315°
2026-05-07 01:48 36.12181 -86.67262 587 ft 13 kts 15°
2026-05-07 01:48 36.12229 -86.67214 586 ft 0 kts 43°
2026-05-07 01:49 36.12234 -86.67208 586 ft 2 kts 43°
2026-05-07 01:49 36.12243 -86.67198 586 ft 0 kts 43°
2026-05-07 01:49 36.12261 -86.67177 585 ft 17 kts 43°
2026-05-07 01:49 36.12371 -86.67047 584 ft 12 kts 45°
2026-05-07 01:50 36.12384 -86.67023 584 ft 12 kts 77°
2026-05-07 01:50 36.12326 -86.66920 582 ft 19 kts 135°
2026-05-07 01:50 36.12307 -86.66894 582 ft 0 kts 133°
2026-05-07 01:50 36.12305 -86.66891 582 ft 4 kts 122°
2026-05-07 01:51 36.12271 -86.66784 582 ft 21 kts 109°
2026-05-07 01:51 36.12232 -86.66635 577 ft 15 kts 108°
2026-05-07 01:51 36.12222 -86.66597 573 ft 0 kts 108°
2026-05-07 01:51 36.12205 -86.66553 577 ft 11 kts 135°
2026-05-07 01:52 36.12129 -86.66565 577 ft 8 kts 200°
2026-05-07 01:52 36.12094 -86.66581 580 ft 7 kts 199°
2026-05-07 01:52 36.12057 -86.66597 582 ft 3 kts 199°
2026-05-07 01:52 36.11979 -86.66627 584 ft 20 kts 198°
2026-05-07 01:53 36.11821 -86.66691 588 ft 25 kts 198°
2026-05-07 01:53 36.11673 -86.66746 592 ft 15 kts 198°
2026-05-07 01:53 36.11658 -86.66752 592 ft 1 kts 198°
2026-05-07 01:53 36.11632 -86.66763 593 ft 14 kts 198°
2026-05-07 01:54 36.11484 -86.66824 597 ft 25 kts 198°
2026-05-07 01:54 36.11344 -86.66875 598 ft 7 kts 180°
2026-05-07 01:54 36.11300 -86.66799 597 ft 17 kts 86°
2026-05-07 01:54 36.11396 -86.66714 597 ft 32 kts 18°
2026-05-07 01:55 36.11905 -86.66509 583 ft 121 kts 18°
2026-05-07 01:55 36.12943 -86.66094 797 ft 185 kts 17°
2026-05-07 01:55 36.14259 -86.65448 1951 ft 215 kts 26°
2026-05-07 01:55 36.15489 -86.64308 3316 ft 217 kts 45°
2026-05-07 01:56 36.16414 -86.62998 3656 ft 213 kts 48°
2026-05-07 01:56 36.17480 -86.61399 4361 ft 257 kts 49°
2026-05-07 01:56 36.18528 -86.59705 6453 ft 231 kts 49°
2026-05-07 01:56 36.19470 -86.57968 7543 ft 266 kts 55°
2026-05-07 01:57 36.20303 -86.55662 7719 ft 333 kts 72°
2026-05-07 01:57 36.20711 -86.52622 8650 ft 361 kts 88°
2026-05-07 01:57 36.20680 -86.49522 10731 ft 363 kts 96°
2026-05-07 01:57 36.20495 -86.46289 11821 ft 394 kts 98°
2026-05-07 01:58 36.20151 -86.42756 12622 ft 432 kts 101°
2026-05-07 01:58 36.19863 -86.38851 13471 ft 473 kts 96°
2026-05-07 01:58 36.19704 -86.34656 14283 ft 515 kts 94°
2026-05-07 01:58 36.19707 -86.30082 15053 ft 540 kts 90°
2026-05-07 01:59 36.19915 -86.25577 15830 ft 517 kts 88°
2026-05-07 01:59 36.20042 -86.21040 17016 ft 538 kts 92°
2026-05-07 01:59 36.19933 -86.16298 18303 ft 563 kts 95°
2026-05-07 01:59 36.19862 -86.11481 19424 ft 588 kts 91°
2026-05-07 02:00 36.20271 -86.06316 20596 ft 604 kts 81°
2026-05-07 02:00 36.21200 -86.01173 21835 ft 614 kts 75°
2026-05-07 02:00 36.22261 -85.96099 23106 ft 626 kts 76°
2026-05-07 02:00 36.23271 -85.90672 24319 ft 639 kts 78°
2026-05-07 02:01 36.24181 -85.85285 25455 ft 641 kts 78°
2026-05-07 02:01 36.25219 -85.79885 26647 ft 643 kts 75°
2026-05-07 02:01 36.26598 -85.74603 27878 ft 644 kts 69°
2026-05-07 02:01 36.28161 -85.69460 29168 ft 645 kts 68°
2026-05-07 02:02 36.29606 -85.64352 30417 ft 648 kts 71°
2026-05-07 02:02 36.30926 -85.59319 31526 ft 647 kts 71°
2026-05-07 02:02 36.32364 -85.54139 32729 ft 645 kts 69°
2026-05-07 02:02 36.33922 -85.48985 33974 ft 643 kts 69°
2026-05-07 02:03 36.35415 -85.43857 35098 ft 639 kts 69°
2026-05-07 02:03 36.36979 -85.38564 36308 ft 633 kts 68°
2026-05-07 02:03 36.38554 -85.33429 36935 ft 642 kts 66°
2026-05-07 02:04 36.41874 -85.23061 36929 ft 648 kts 67°
2026-05-07 02:04 36.45034 -85.12581 36942 ft 648 kts 67°
2026-05-07 02:05 36.48282 -85.02293 36954 ft 649 kts 66°
2026-05-07 02:05 36.50989 -84.91595 36934 ft 651 kts 78°
2026-05-07 02:06 36.52671 -84.80598 36946 ft 651 kts 79°
2026-05-07 02:06 36.54429 -84.69513 36940 ft 651 kts 79°
2026-05-07 02:07 36.56094 -84.58426 36935 ft 651 kts 79°
2026-05-07 02:07 36.58639 -84.41896 36950 ft 651 kts 80°
2026-05-07 02:08 36.60295 -84.30864 36932 ft 651 kts 79°
2026-05-07 02:08 36.61977 -84.19759 36931 ft 650 kts 79°
2026-05-07 02:09 36.63607 -84.08744 36938 ft 650 kts 79°
2026-05-07 02:09 36.65269 -83.97642 36932 ft 650 kts 80°
2026-05-07 02:10 36.66892 -83.86525 36938 ft 650 kts 79°
2026-05-07 02:10 36.68513 -83.75528 36931 ft 651 kts 80°
2026-05-07 02:11 36.70122 -83.64387 36927 ft 651 kts 80°
2026-05-07 02:11 36.71736 -83.53259 36922 ft 651 kts 80°
2026-05-07 02:12 36.73318 -83.42183 36903 ft 651 kts 80°
2026-05-07 02:12 36.74911 -83.31033 36899 ft 651 kts 80°
2026-05-07 02:13 36.76468 -83.19984 36906 ft 651 kts 80°
2026-05-07 02:13 36.78032 -83.08860 36584 ft 650 kts 80°
2026-05-07 02:14 36.78813 -83.03284 36083 ft 650 kts 80°
2026-05-07 02:14 36.79583 -82.97734 35587 ft 650 kts 81°
2026-05-07 02:14 36.80353 -82.92164 35126 ft 649 kts 81°
2026-05-07 02:14 36.81118 -82.86634 34668 ft 649 kts 81°
2026-05-07 02:15 36.81887 -82.81066 34225 ft 648 kts 81°
2026-05-07 02:15 36.82647 -82.75509 33751 ft 648 kts 81°
2026-05-07 02:15 36.83406 -82.69955 33241 ft 647 kts 81°
2026-05-07 02:15 36.84154 -82.64475 32748 ft 647 kts 81°
2026-05-07 02:16 36.84900 -82.58978 32264 ft 634 kts 81°
2026-05-07 02:16 36.85625 -82.53604 31579 ft 623 kts 81°
2026-05-07 02:16 36.86345 -82.48267 30623 ft 620 kts 81°
2026-05-07 02:16 36.87056 -82.42976 29627 ft 615 kts 81°
2026-05-07 02:17 36.87753 -82.37757 28566 ft 610 kts 81°
2026-05-07 02:17 36.88447 -82.32550 27531 ft 605 kts 81°
2026-05-07 02:17 36.88913 -82.29056 26850 ft 600 kts 81°
2026-05-07 02:17 36.89586 -82.23985 25886 ft 593 kts 81°
2026-05-07 02:18 36.90255 -82.18915 24934 ft 586 kts 81°
2026-05-07 02:18 36.90914 -82.13904 24069 ft 579 kts 81°
2026-05-07 02:18 36.91551 -82.09048 23913 ft 554 kts 81°
2026-05-07 02:18 36.92157 -82.04435 23908 ft 530 kts 81°
2026-05-07 02:19 36.92748 -81.99898 23909 ft 538 kts 81°
2026-05-07 02:19 36.93370 -81.95102 23944 ft 570 kts 81°
2026-05-07 02:19 36.94001 -81.90250 23952 ft 561 kts 81°
2026-05-07 02:19 36.94609 -81.85539 23961 ft 553 kts 81°
2026-05-07 02:20 36.95214 -81.80829 23967 ft 545 kts 81°
2026-05-07 02:20 36.95813 -81.76161 23953 ft 538 kts 81°
2026-05-07 02:20 36.96405 -81.71552 23947 ft 531 kts 81°
2026-05-07 02:20 36.96983 -81.67011 23941 ft 525 kts 81°
2026-05-07 02:21 36.97552 -81.62538 23565 ft 530 kts 81°
2026-05-07 02:21 36.98134 -81.57955 23079 ft 534 kts 81°
2026-05-07 02:21 36.98714 -81.53349 22610 ft 538 kts 81°
2026-05-07 02:21 36.99296 -81.48717 22168 ft 540 kts 81°
2026-05-07 02:22 36.99886 -81.44037 21714 ft 542 kts 81°
2026-05-07 02:22 37.00478 -81.39327 20659 ft 552 kts 80°
2026-05-07 02:22 37.01060 -81.34639 19487 ft 549 kts 80°
2026-05-07 02:22 37.01642 -81.29927 18350 ft 546 kts 80°
2026-05-07 02:23 37.02222 -81.25254 17039 ft 540 kts 81°
2026-05-07 02:23 37.02800 -81.20625 15801 ft 532 kts 81°
2026-05-07 02:23 37.03358 -81.16097 14705 ft 517 kts 81°
2026-05-07 02:23 37.03879 -81.11768 14480 ft 488 kts 82°
2026-05-07 02:24 37.04376 -81.07683 14297 ft 462 kts 81°
2026-05-07 02:24 37.04855 -81.03853 14122 ft 439 kts 82°
2026-05-07 02:24 37.05306 -81.00154 13922 ft 419 kts 82°
2026-05-07 02:24 37.05726 -80.96620 13755 ft 400 kts 82°
2026-05-07 02:25 37.06132 -80.93248 13268 ft 392 kts 82°
2026-05-07 02:25 37.06544 -80.89894 12754 ft 386 kts 81°
2026-05-07 02:25 37.06945 -80.86574 12242 ft 384 kts 82°
2026-05-07 02:25 37.07332 -80.83295 11759 ft 377 kts 82°
2026-05-07 02:26 37.07715 -80.80096 11251 ft 370 kts 81°
2026-05-07 02:26 37.08099 -80.76920 10787 ft 365 kts 81°
2026-05-07 02:26 37.08475 -80.73817 10315 ft 360 kts 80°
2026-05-07 02:26 37.09168 -80.70815 9806 ft 354 kts 65°
2026-05-07 02:27 37.10320 -80.68116 9293 ft 348 kts 55°
2026-05-07 02:27 37.11577 -80.65603 8991 ft 338 kts 56°
2026-05-07 02:27 37.12756 -80.63152 8987 ft 319 kts 56°
2026-05-07 02:27 37.13875 -80.60835 8982 ft 300 kts 55°
2026-05-07 02:28 37.14947 -80.58671 8976 ft 282 kts 55°
2026-05-07 02:28 37.15948 -80.56636 8974 ft 267 kts 54°
2026-05-07 02:28 37.16881 -80.54717 8972 ft 251 kts 54°
2026-05-07 02:28 37.17807 -80.52831 9026 ft 274 kts 54°
2026-05-07 02:29 37.18882 -80.50654 9063 ft 296 kts 56°
2026-05-07 02:29 37.19959 -80.48425 8730 ft 317 kts 56°
2026-05-07 02:29 37.21160 -80.45958 8264 ft 350 kts 56°
2026-05-07 02:29 37.22465 -80.43285 7810 ft 367 kts 57°
2026-05-07 02:30 37.23898 -80.40340 7363 ft 419 kts 57°
2026-05-07 02:30 37.25451 -80.37146 6967 ft 421 kts 57°
2026-05-07 02:30 37.26890 -80.34162 6549 ft 387 kts 58°
2026-05-07 02:30 37.28260 -80.31334 6078 ft 372 kts 57°
2026-05-07 02:31 37.29591 -80.28604 5609 ft 360 kts 57°
2026-05-07 02:31 37.30887 -80.25936 5150 ft 366 kts 57°
2026-05-07 02:31 37.32224 -80.23167 5007 ft 370 kts 58°
2026-05-07 02:31 37.33557 -80.20404 4946 ft 368 kts 57°
2026-05-07 02:32 37.34934 -80.17564 4953 ft 392 kts 58°
2026-05-07 02:32 37.36308 -80.14720 4952 ft 368 kts 58°
2026-05-07 02:32 37.37577 -80.12078 4942 ft 342 kts 58°
2026-05-07 02:32 37.38768 -80.09604 4938 ft 320 kts 57°
2026-05-07 02:33 37.39891 -80.07281 4936 ft 299 kts 57°
2026-05-07 02:33 37.40998 -80.04987 4949 ft 310 kts 57°
2026-05-07 02:33 37.42107 -80.02680 4947 ft 315 kts 57°
2026-05-07 02:33 37.43260 -80.00276 4977 ft 320 kts 58°
2026-05-07 02:34 37.44417 -79.97870 4992 ft 317 kts 57°
2026-05-07 02:34 37.45555 -79.95498 4993 ft 323 kts 58°
2026-05-07 02:34 37.46714 -79.93086 5001 ft 318 kts 58°
2026-05-07 02:34 37.47814 -79.90782 4981 ft 297 kts 58°
2026-05-07 02:35 37.48870 -79.88576 4980 ft 287 kts 58°
2026-05-07 02:35 37.49864 -79.86504 4978 ft 271 kts 57°
2026-05-07 02:35 37.50810 -79.84507 4966 ft 266 kts 59°
2026-05-07 02:35 37.51415 -79.82299 4971 ft 268 kts 82°
2026-05-07 02:36 37.51465 -79.80000 4974 ft 255 kts 99°
2026-05-07 02:36 37.51039 -79.77907 4973 ft 236 kts 117°
2026-05-07 02:36 37.50273 -79.76179 4966 ft 226 kts 133°
2026-05-07 02:36 37.49216 -79.74769 4977 ft 218 kts 148°
2026-05-07 02:37 37.47987 -79.73766 4969 ft 202 kts 162°
2026-05-07 02:37 37.46717 -79.73185 4973 ft 184 kts 176°
2026-05-07 02:37 37.45524 -79.72972 4916 ft 163 kts 188°
2026-05-07 02:37 37.44391 -79.72944 4609 ft 166 kts 188°
2026-05-07 02:38 37.43239 -79.72866 4323 ft 169 kts 186°
2026-05-07 02:38 37.42078 -79.73058 4215 ft 169 kts 206°
2026-05-07 02:38 37.41012 -79.73754 4166 ft 188 kts 221°
2026-05-07 02:38 37.40099 -79.74921 4140 ft 201 kts 238°
2026-05-07 02:39 37.39510 -79.76557 4185 ft 193 kts 256°
2026-05-07 02:39 37.39189 -79.78095 4115 ft 177 kts 255°
2026-05-07 02:39 37.38845 -79.79517 3879 ft 164 kts 254°
2026-05-07 02:39 37.38529 -79.80894 3600 ft 169 kts 255°
2026-05-07 02:40 37.38205 -79.82359 3506 ft 184 kts 255°
2026-05-07 02:40 37.37856 -79.83906 3509 ft 193 kts 256°
2026-05-07 02:40 37.37483 -79.85549 3507 ft 190 kts 255°
2026-05-07 02:40 37.37133 -79.87085 3491 ft 170 kts 255°
2026-05-07 02:41 37.36869 -79.88463 3489 ft 160 kts 258°
2026-05-07 02:41 37.36658 -79.89876 3330 ft 166 kts 260°
2026-05-07 02:41 37.36503 -79.91313 2775 ft 174 kts 265°
2026-05-07 02:41 37.36230 -79.92758 2391 ft 164 kts 240°
2026-05-07 02:42 37.35451 -79.93743 2118 ft 157 kts 219°
2026-05-07 02:42 37.34724 -79.94694 1803 ft 149 kts 232°
2026-05-07 02:42 37.34056 -79.95687 1470 ft 152 kts 232°
2026-05-07 02:42 37.33368 -79.96712 1209 ft 149 kts 232°
2026-05-07 02:43 37.32782 -79.97594 1163 ft 99 kts 230°
2026-05-07 02:43 37.32516 -79.97986 1166 ft 43 kts 230°
2026-05-07 02:43 37.32321 -79.98269 1160 ft 40 kts 231°
2026-05-07 02:43 37.32185 -79.98336 1158 ft 17 kts 146°
2026-05-07 02:44 37.32166 -79.98311 1159 ft 0 kts 123°
2026-05-07 02:44 37.32161 -79.98293 1159 ft 10 kts 99°
2026-05-07 02:44 37.32196 -79.98176 1159 ft 18 kts 64°
2026-05-07 02:45 37.32261 -79.98012 1162 ft 21 kts 64°
2026-05-07 02:45 37.32329 -79.97845 1161 ft 16 kts 58°
2026-05-07 02:45 37.32348 -79.97806 1162 ft 0 kts 58°
2026-05-07 02:45 37.32367 -79.97769 1163 ft 19 kts 59°
2026-05-07 02:46 37.32443 -79.97618 1162 ft 19 kts 57°
2026-05-07 02:46 37.32490 -79.97481 1163 ft 15 kts 77°
2026-05-07 02:46 37.32498 -79.97413 1161 ft 0 kts 83°